Lid_Strength_Index
5 5 5 5 4 5 7 12 13 7 7 13 15 16 12 8 8 7 8 8 10 11 11 12 12 12 10 7 8 12 10 13 16 13 9 9 11 13 13 16 18 18 20 19
5 5 5 5 5 5 7 11 11 7 8 19 17 12 10 9 9 9 9 10 9 9 11 14 12 11 8 7 9 11 10 14 17 15 12 10 12 11 12 13 14 18 20 19
5 5 5 5 5 5 9 12 15 12 12 14 15 13 11 11 8 8 8 9 8 10 12 10 12 11 8 7 8 6 8 13 15 17 15 12 14 12 12 13 17 17 17 16
5 5 5 5 5 6 10 13 16 12 17 16 14 11 11 11 11 8 8 10 9 10 13 12 12 10 10 8 7 8 9 14 14 13 12 12 13 13 12 13 13 17 15 16
4 4 4 5 5 6 12 17 15 13 14 13 14 12 11 11 10 9 10 11 9 9 12 11 13 11 11 12 9 10 9 14 13 15 12 12 14 12 12 12 12 14 14 15
4 4 4 5 5 7 11 11 13 12 14 14 16 15 11 11 10 8 7 8 10 10 9 7 8 8 8 8 10 11 12 13 15 17 13 13 16 13 12 12 11 12 16 13
4 4 5 5 5 6 8 9 10 12 16 14 14 13 11 11 10 10 8 8 9 7 6 7 8 10 9 9 9 8 11 13 14 17 15 20 12 10 10 11 10 10 11 11
4 5 5 5 5 5 8 8 10 11 14 13 12 12 11 11 9 9 8 8 7 8 10 12 13 12 12 11 10 10 10 12 15 17 18 15 12 11 12 13 13 9 10 9
5 5 5 5 5 5 6 8 8 10 13 14 10 13 12 13 12 9 9 7 7 9 13 13 16 17 14 15 13 9 10 11 14 16 19 20 14 10 8 9 16 9 9 9
6 5 5 5 5 5 6 7 7 9 12 11 10 11 13 10 10 11 9 8 10 10 14 15 15 15 12 16 16 15 14 14 16 16 17 15 11 10 9 17 15 9 8 8
6 6 6 5 5 5 6 7 7 9 11 10 8 9 11 11 10 11 9 10 10 12 13 14 14 14 13 14 12 14 15 16 16 15 17 19 10 11 13 10 8 8 7 7
6 6 6 5 5 5 5 8 6 6 9 9 6 6 7 7 7 8 8 9 9 9 11 12 12 15 12 13 16 10 15 12 14 14 14 10 9 11 8 7 8 7 7 7
6 6 6 6 6 5 5 7 6 8 10 9 11 10 8 7 6 5 9 10 8 8 6 9 10 13 11 15 14 12 11 9 12 12 10 10 8 8 7 6 6 6 6 7
6 6 6 5 5 5 5 7 6 8 9 12 12 6 8 6 6 7 6 7 7 6 7 9 10 12 8 12 11 12 10 9 11 11 9 9 8 8 7 6 6 6 6 5
6 6 6 5 5 5 6 6 6 6 9 12 11 8 7 7 6 6 5 6 7 7 8 9 10 8 9 9 9 11 9 10 12 13 10 10 9 7 7 7 7 7 6 6
5 5 5 5 5 5 6 9 6 5 6 11 12 9 7 7 7 5 6 6 6 6 8 8 8 6 9 12 13 10 9 7 7 8 7 8 7 6 6 6 7 6 7 6
6 5 5 5 5 6 8 9 6 5 6 10 11 12 7 6 7 6 6 5 6 6 7 8 10 8 8 10 14 10 9 7 7 6 7 8 7 8 7 6 6 6 7 7
5 5 4 4 4 5 7 5 4 4 7 7 11 12 11 6 8 9 7 7 6 7 8 7 9 9 11 13 11 10 8 7 7 7 6 7 7 8 8 7 7 7 8 9
5 4 4 5 6 7 6 3 3 4 7 10 10 13 15 8 7 6 6 6 10 6 9 9 8 10 14 11 11 9 9 9 8 7 7 7 9 9 9 9 9 10 9 9
6 8 7 7 6 4 4 5 7 7 7 7 9 8 12 10 10 10 9 9 11 12 10 7 10 12 9 9 9 8 7 7 7 8 9 8 9 9 10 10 9 10 10 10
11 13 10 8 5 6 6 9 9 10 11 9 9 8 9 8 12 12 9 11 12 13 12 11 11 12 10 8 8 7 6 6 7 7 5 6 8 9 9 9 9 9 10 10
11 10 8 7 9 10 10 11 9 10 12 9 10 10 9 10 8 9 9 12 12 14 9 11 13 10 8 7 7 7 6 6 6 6 6 6 7 8 9 10 10 10 10 10
9 8 10 9 10 13 13 15 11 11 8 7 7 9 8 10 9 9 12 14 14 12 15 14 12 10 8 7 6 6 6 5 5 6 5 6 7 8 9 10 10 9 9 10
11 11 14 12 14 13 13 12 11 7 7 7 7 8 8 9 11 11 13 12 13 17 17 15 11 9 7 6 6 6 6 6 6 5 5 6 7 7 8 9 9 10 10 10
12 11 14 13 11 10 9 7 7 6 6 6 8 8 8 9 10 10 12 13 16 17 16 14 10 8 7 7 6 7 6 6 6 5 5 6 6 7 8 9 10 9 10 10
10 11 12 9 10 11 10 9 9 7 7 6 7 9 10 11 11 13 13 15 18 16 14 10 9 8 7 7 6 6 6 6 6 5 5 6 6 7 8 8 9 10 10 10
11 12 9 10 11 10 10 10 9 8 9 10 9 12 12 9 12 13 14 15 13 11 11 9 8 7 7 6 5 5 6 6 6 5 5 6 7 7 8 9 9 10 10 10